Time,TemperatureF,DewpointF,PressureIn,WindDirection,WindDirectionDegrees,WindSpeedMPH,WindSpeedGustMPH,Humidity,HourlyPrecipIn,Conditions,Clouds,dailyrainin,SoftwareType,DateUTC
2013-11-27 00:02:00,30.2,15.1,30.44,NNE,19,7.0,15.0,53,0.00,,,0.00,VWS V14.01,2013-11-27 06:02:00,
2013-11-27 00:07:00,30.1,15.1,30.45,NNE,32,6.0,16.0,53,0.00,,,0.00,VWS V14.01,2013-11-27 06:07:00,
2013-11-27 00:12:00,30.0,15.4,30.45,NNE,20,2.0,16.0,54,0.00,,,0.00,VWS V14.01,2013-11-27 06:12:00,
2013-11-27 00:17:00,29.8,15.2,30.45,NNE,14,7.0,16.0,54,0.00,,,0.00,VWS V14.01,2013-11-27 06:17:00,
2013-11-27 00:22:00,29.6,15.0,30.45,NE,43,9.0,16.0,54,0.00,,,0.00,VWS V14.01,2013-11-27 06:22:00,
2013-11-27 00:27:00,29.4,14.8,30.45,North,11,8.0,16.0,54,0.00,,,0.00,VWS V14.01,2013-11-27 06:27:00,
2013-11-27 00:32:00,29.3,14.7,30.45,North,9,9.0,16.0,54,0.00,,,0.00,VWS V14.01,2013-11-27 06:32:00,
2013-11-27 00:37:00,29.2,14.6,30.45,North,355,2.0,14.0,54,0.00,,,0.00,VWS V14.01,2013-11-27 06:37:00,
2013-11-27 00:42:00,29.0,14.4,30.45,North,355,9.0,14.0,54,0.00,,,0.00,VWS V14.01,2013-11-27 06:42:00,
2013-11-27 00:47:00,28.9,14.8,30.45,NE,34,5.0,15.0,55,0.00,,,0.00,VWS V14.01,2013-11-27 06:47:00,
2013-11-27 00:52:00,28.8,14.7,30.45,North,360,4.0,15.0,55,0.00,,,0.00,VWS V14.01,2013-11-27 06:52:00,
2013-11-27 00:57:00,28.7,15.0,30.45,NE,40,4.0,15.0,56,0.00,,,0.00,VWS V14.01,2013-11-27 06:57:00,
2013-11-27 01:02:00,28.5,14.8,30.46,NNE,21,2.0,15.0,56,0.00,,,0.00,VWS V14.01,2013-11-27 07:02:00,
2013-11-27 01:07:00,28.3,14.6,30.45,NNE,32,11.0,12.0,56,0.00,,,0.00,VWS V14.01,2013-11-27 07:07:00,
2013-11-27 01:12:00,28.1,14.8,30.45,NNW,344,9.0,12.0,57,0.00,,,0.00,VWS V14.01,2013-11-27 07:12:00,
2013-11-27 01:17:00,27.9,14.6,30.46,NNE,12,2.0,12.0,57,0.00,,,0.00,VWS V14.01,2013-11-27 07:17:00,
2013-11-27 01:22:00,27.8,15.0,30.46,North,5,8.0,12.0,58,0.00,,,0.00,VWS V14.01,2013-11-27 07:22:00,
2013-11-27 01:27:00,27.6,14.4,30.46,NNE,30,7.0,13.0,57,0.00,,,0.00,VWS V14.01,2013-11-27 07:27:00,
2013-11-27 01:32:00,27.5,14.7,30.46,NW,323,6.0,14.0,58,0.00,,,0.00,VWS V14.01,2013-11-27 07:32:00,
2013-11-27 01:37:00,27.3,14.1,30.46,North,360,6.0,8.0,57,0.00,,,0.00,VWS V14.01,2013-11-27 07:37:00,
2013-11-27 01:42:00,27.2,14.4,30.46,North,355,3.0,11.0,58,0.00,,,0.00,VWS V14.01,2013-11-27 07:42:00,
2013-11-27 01:47:00,27.1,14.3,30.46,NNW,346,4.0,11.0,58,0.00,,,0.00,VWS V14.01,2013-11-27 07:47:00,
2013-11-27 01:52:00,27.0,14.2,30.46,NNE,15,2.0,11.0,58,0.00,,,0.00,VWS V14.01,2013-11-27 07:52:00,
2013-11-27 01:57:00,26.7,13.9,30.47,North,355,10.0,11.0,58,0.00,,,0.00,VWS V14.01,2013-11-27 07:57:00,
2013-11-27 02:02:00,26.7,14.3,30.46,North,5,5.0,13.0,59,0.00,,,0.00,VWS V14.01,2013-11-27 08:02:00,
2013-11-27 02:07:00,26.6,14.2,30.46,NNW,340,4.0,8.0,59,0.00,,,0.00,VWS V14.01,2013-11-27 08:07:00,
2013-11-27 02:12:00,26.5,14.1,30.47,NE,40,4.0,8.0,59,0.00,,,0.00,VWS V14.01,2013-11-27 08:12:00,
2013-11-27 02:17:00,26.3,13.9,30.47,NNW,334,7.0,8.0,59,0.00,,,0.00,VWS V14.01,2013-11-27 08:17:00,
2013-11-27 02:22:00,26.2,14.2,30.47,North,350,1.0,10.0,60,0.00,,,0.00,VWS V14.01,2013-11-27 08:22:00,
2013-11-27 02:27:00,26.0,14.0,30.47,NNE,17,4.0,10.0,60,0.00,,,0.00,VWS V14.01,2013-11-27 08:27:00,
2013-11-27 02:32:00,25.9,13.9,30.47,NNE,20,6.0,6.0,60,0.00,,,0.00,VWS V14.01,2013-11-27 08:32:00,
2013-11-27 02:37:00,25.7,13.8,30.47,NNE,26,5.0,8.0,60,0.00,,,0.00,VWS V14.01,2013-11-27 08:37:00,
2013-11-27 02:42:00,25.6,13.7,30.47,North,360,2.0,8.0,60,0.00,,,0.00,VWS V14.01,2013-11-27 08:42:00,
2013-11-27 02:47:00,25.5,13.9,30.46,North,360,5.0,8.0,61,0.00,,,0.00,VWS V14.01,2013-11-27 08:47:00,
2013-11-27 02:52:00,25.5,13.6,30.46,North,360,8.0,10.0,60,0.00,,,0.00,VWS V14.01,2013-11-27 08:52:00,
2013-11-27 02:57:00,25.4,13.8,30.46,NNE,13,2.0,10.0,61,0.00,,,0.00,VWS V14.01,2013-11-27 08:57:00,
2013-11-27 03:02:00,25.4,13.8,30.46,NNW,331,4.0,4.0,61,0.00,,,0.00,VWS V14.01,2013-11-27 09:02:00,
2013-11-27 03:07:00,25.3,13.8,30.46,NNE,23,2.0,9.0,61,0.00,,,0.00,VWS V14.01,2013-11-27 09:07:00,
2013-11-27 03:12:00,25.2,13.6,30.46,NW,325,2.0,9.0,61,0.00,,,0.00,VWS V14.01,2013-11-27 09:12:00,
2013-11-27 03:17:00,25.2,13.6,30.47,North,360,0.0,9.0,61,0.00,,,0.00,VWS V14.01,2013-11-27 09:17:00,
2013-11-27 03:22:00,25.0,13.8,30.46,North,355,0.0,9.0,62,0.00,,,0.00,VWS V14.01,2013-11-27 09:22:00,
2013-11-27 03:27:00,24.9,13.7,30.47,North,355,1.0,9.0,62,0.00,,,0.00,VWS V14.01,2013-11-27 09:27:00,
2013-11-27 03:32:00,24.7,13.2,30.47,NNE,19,0.0,2.0,61,0.00,,,0.00,VWS V14.01,2013-11-27 09:32:00,
2013-11-27 03:37:00,24.6,13.4,30.47,NW,311,6.0,6.0,62,0.00,,,0.00,VWS V14.01,2013-11-27 09:37:00,
2013-11-27 03:42:00,24.5,13.4,30.47,NNE,18,0.0,7.0,62,0.00,,,0.00,VWS V14.01,2013-11-27 09:42:00,
2013-11-27 03:47:00,24.4,13.3,30.47,NNE,30,2.0,7.0,62,0.00,,,0.00,VWS V14.01,2013-11-27 09:47:00,
2013-11-27 03:52:00,24.3,13.2,30.47,NNE,25,6.0,7.0,62,0.00,,,0.00,VWS V14.01,2013-11-27 09:52:00,
2013-11-27 03:57:00,24.3,13.2,30.47,NW,323,0.0,7.0,62,0.00,,,0.00,VWS V14.01,2013-11-27 09:57:00,
2013-11-27 04:02:00,24.3,13.2,30.47,NNW,336,1.0,4.0,62,0.00,,,0.00,VWS V14.01,2013-11-27 10:02:00,
2013-11-27 04:09:00,24.2,13.4,30.47,North,360,0.0,7.0,63,0.00,,,0.00,VWS V14.01,2013-11-27 10:09:00,
2013-11-27 04:14:00,24.2,13.4,30.47,North,9,6.0,7.0,63,0.00,,,0.00,VWS V14.01,2013-11-27 10:14:00,
2013-11-27 04:19:00,24.1,13.3,30.47,NNW,337,4.0,7.0,63,0.00,,,0.00,VWS V14.01,2013-11-27 10:19:00,
2013-11-27 04:24:00,24.0,13.2,30.47,NNE,22,4.0,7.0,63,0.00,,,0.00,VWS V14.01,2013-11-27 10:24:00,
2013-11-27 04:29:00,23.9,13.1,30.47,NNE,13,4.0,8.0,63,0.00,,,0.00,VWS V14.01,2013-11-27 10:29:00,
2013-11-27 04:34:00,23.9,13.1,30.47,NNE,17,2.0,6.0,63,0.00,,,0.00,VWS V14.01,2013-11-27 10:34:00,
2013-11-27 04:39:00,23.9,13.1,30.47,NNE,17,1.0,6.0,63,0.00,,,0.00,VWS V14.01,2013-11-27 10:39:00,
2013-11-27 04:44:00,23.9,13.1,30.47,NNE,13,0.0,6.0,63,0.00,,,0.00,VWS V14.01,2013-11-27 10:44:00,
2013-11-27 04:49:00,23.8,13.1,30.47,NW,323,0.0,6.0,63,0.00,,,0.00,VWS V14.01,2013-11-27 10:49:00,
2013-11-27 04:54:00,23.7,13.0,30.47,NE,40,2.0,6.0,63,0.00,,,0.00,VWS V14.01,2013-11-27 10:54:00,
2013-11-27 04:59:00,23.6,13.2,30.47,North,355,1.0,6.0,64,0.00,,,0.00,VWS V14.01,2013-11-27 10:59:00,
2013-11-27 05:04:00,23.4,13.0,30.48,North,355,1.0,5.0,64,0.00,,,0.00,VWS V14.01,2013-11-27 11:04:00,
2013-11-27 05:09:00,23.3,12.9,30.48,North,9,0.0,5.0,64,0.00,,,0.00,VWS V14.01,2013-11-27 11:09:00,
2013-11-27 05:14:00,23.2,12.8,30.48,NNW,339,0.0,7.0,64,0.00,,,0.00,VWS V14.01,2013-11-27 11:14:00,
2013-11-27 05:19:00,23.1,13.1,30.48,NNW,339,0.0,7.0,65,0.00,,,0.00,VWS V14.01,2013-11-27 11:19:00,
2013-11-27 05:24:00,23.0,13.0,30.48,NNW,340,0.0,7.0,65,0.00,,,0.00,VWS V14.01,2013-11-27 11:24:00,
2013-11-27 05:29:00,22.8,12.8,30.48,NNW,340,0.0,7.0,65,0.00,,,0.00,VWS V14.01,2013-11-27 11:29:00,
2013-11-27 05:34:00,22.7,13.1,30.48,NW,325,0.0,1.0,66,0.00,,,0.00,VWS V14.01,2013-11-27 11:34:00,
2013-11-27 05:39:00,22.5,12.9,30.48,NW,325,0.0,1.0,66,0.00,,,0.00,VWS V14.01,2013-11-27 11:39:00,
2013-11-27 05:44:00,22.4,12.8,30.48,North,355,1.0,4.0,66,0.00,,,0.00,VWS V14.01,2013-11-27 11:44:00,
2013-11-27 05:49:00,22.2,12.6,30.49,North,355,5.0,5.0,66,0.00,,,0.00,VWS V14.01,2013-11-27 11:49:00,
2013-11-27 05:54:00,22.2,12.6,30.48,North,360,1.0,5.0,66,0.00,,,0.00,VWS V14.01,2013-11-27 11:54:00,
2013-11-27 05:59:00,22.2,12.6,30.48,NNE,31,0.0,7.0,66,0.00,,,0.00,VWS V14.01,2013-11-27 11:59:00,
2013-11-27 06:04:00,22.1,12.8,30.48,NNE,31,1.0,4.0,67,0.00,,,0.00,VWS V14.01,2013-11-27 12:04:00,
2013-11-27 06:09:00,22.1,12.8,30.48,ENE,74,1.0,5.0,67,0.00,,,0.00,VWS V14.01,2013-11-27 12:09:00,
2013-11-27 06:14:00,22.0,12.7,30.48,North,360,0.0,5.0,67,0.00,,,0.00,VWS V14.01,2013-11-27 12:14:00,
2013-11-27 06:19:00,22.0,12.7,30.48,NE,48,1.0,5.0,67,0.00,,,0.00,VWS V14.01,2013-11-27 12:19:00,
2013-11-27 06:24:00,21.9,12.6,30.48,NNW,344,0.0,5.0,67,0.00,,,0.00,VWS V14.01,2013-11-27 12:24:00,
2013-11-27 06:29:00,21.9,12.6,30.48,NNW,345,0.0,5.0,67,0.00,,,0.00,VWS V14.01,2013-11-27 12:29:00,
2013-11-27 06:34:00,21.8,12.5,30.48,NNW,345,0.0,0.0,67,0.00,,,0.00,VWS V14.01,2013-11-27 12:34:00,
2013-11-27 06:39:00,21.7,12.4,30.48,NNW,341,0.0,2.0,67,0.00,,,0.00,VWS V14.01,2013-11-27 12:39:00,
2013-11-27 06:44:00,21.6,12.7,30.48,NNW,342,0.0,2.0,68,0.00,,,0.00,VWS V14.01,2013-11-27 12:44:00,
2013-11-27 06:49:00,21.5,12.9,30.49,NNW,344,0.0,4.0,69,0.00,,,0.00,VWS V14.01,2013-11-27 12:49:00,
2013-11-27 06:54:00,21.4,12.8,30.49,NNW,344,0.0,4.0,69,0.00,,,0.00,VWS V14.01,2013-11-27 12:54:00,
2013-11-27 06:59:00,21.3,12.7,30.49,NNW,344,2.0,4.0,69,0.00,,,0.00,VWS V14.01,2013-11-27 12:59:00,
2013-11-27 07:04:00,21.2,12.3,30.49,NNW,344,0.0,0.0,68,0.00,,,0.00,VWS V14.01,2013-11-27 13:04:00,
2013-11-27 07:09:00,21.2,12.3,30.49,NNW,344,0.0,0.0,68,0.00,,,0.00,VWS V14.01,2013-11-27 13:09:00,
2013-11-27 07:14:00,21.1,12.2,30.49,NNW,344,0.0,2.0,68,0.00,,,0.00,VWS V14.01,2013-11-27 13:14:00,
2013-11-27 07:19:00,21.0,12.4,30.50,NNW,344,0.0,2.0,69,0.00,,,0.00,VWS V14.01,2013-11-27 13:19:00,
2013-11-27 07:24:00,21.0,12.4,30.50,NNW,344,0.0,2.0,69,0.00,,,0.00,VWS V14.01,2013-11-27 13:24:00,
2013-11-27 07:29:00,20.9,12.4,30.50,NNW,344,0.0,2.0,69,0.00,,,0.00,VWS V14.01,2013-11-27 13:29:00,
2013-11-27 07:34:00,20.9,12.4,30.51,NW,321,0.0,3.0,69,0.00,,,0.00,VWS V14.01,2013-11-27 13:34:00,
2013-11-27 07:39:00,21.0,12.4,30.51,NW,321,2.0,3.0,69,0.00,,,0.00,VWS V14.01,2013-11-27 13:39:00,
2013-11-27 07:44:00,21.2,12.3,30.51,NNW,342,0.0,4.0,68,0.00,,,0.00,VWS V14.01,2013-11-27 13:44:00,
2013-11-27 07:49:00,21.3,12.7,30.51,NW,313,0.0,4.0,69,0.00,,,0.00,VWS V14.01,2013-11-27 13:49:00,
2013-11-27 07:54:00,21.5,12.9,30.51,NNE,25,3.0,4.0,69,0.00,,,0.00,VWS V14.01,2013-11-27 13:54:00,
2013-11-27 07:59:00,22.2,13.3,30.51,NNE,19,2.0,5.0,68,0.00,,,0.00,VWS V14.01,2013-11-27 13:59:00,
2013-11-27 08:04:00,23.1,13.8,30.51,North,360,2.0,5.0,67,0.00,,,0.00,VWS V14.01,2013-11-27 14:04:00,
2013-11-27 08:09:00,23.8,14.1,30.52,NNW,331,2.0,7.0,66,0.00,,,0.00,VWS V14.01,2013-11-27 14:09:00,
2013-11-27 08:14:00,24.2,13.8,30.52,NW,304,2.0,7.0,64,0.00,,,0.00,VWS V14.01,2013-11-27 14:14:00,
2013-11-27 08:19:00,24.5,14.1,30.52,North,5,5.0,7.0,64,0.00,,,0.00,VWS V14.01,2013-11-27 14:19:00,
2013-11-27 08:24:00,24.7,14.3,30.52,NNE,13,4.0,7.0,64,0.00,,,0.00,VWS V14.01,2013-11-27 14:24:00,
2013-11-27 08:29:00,24.8,14.0,30.52,NNE,22,1.0,7.0,63,0.00,,,0.00,VWS V14.01,2013-11-27 14:29:00,
2013-11-27 08:34:00,24.9,14.1,30.53,North,349,1.0,1.0,63,0.00,,,0.00,VWS V14.01,2013-11-27 14:34:00,
2013-11-27 08:39:00,25.1,13.9,30.53,NNE,14,4.0,7.0,62,0.00,,,0.00,VWS V14.01,2013-11-27 14:39:00,
2013-11-27 08:44:00,25.2,13.6,30.53,North,355,6.0,8.0,61,0.00,,,0.00,VWS V14.01,2013-11-27 14:44:00,
2013-11-27 08:49:00,25.5,13.2,30.52,North,355,4.0,8.0,59,0.00,,,0.00,VWS V14.01,2013-11-27 14:49:00,
2013-11-27 08:54:00,25.8,13.5,30.52,NNE,30,5.0,8.0,59,0.00,,,0.00,VWS V14.01,2013-11-27 14:54:00,
2013-11-27 08:59:00,26.2,13.4,30.52,North,351,8.0,8.0,58,0.00,,,0.00,VWS V14.01,2013-11-27 14:59:00,
2013-11-27 09:04:00,26.7,13.5,30.52,NNW,337,1.0,7.0,57,0.00,,,0.00,VWS V14.01,2013-11-27 15:04:00,
2013-11-27 09:09:00,26.9,12.9,30.52,NNE,26,0.0,9.0,55,0.00,,,0.00,VWS V14.01,2013-11-27 15:09:00,
2013-11-27 09:14:00,27.3,13.7,30.53,NW,325,8.0,9.0,56,0.00,,,0.00,VWS V14.01,2013-11-27 15:14:00,
2013-11-27 09:19:00,27.6,13.1,30.53,North,11,3.0,9.0,54,0.00,,,0.00,VWS V14.01,2013-11-27 15:19:00,
2013-11-27 09:24:00,27.7,12.8,30.52,North,11,6.0,10.0,53,0.00,,,0.00,VWS V14.01,2013-11-27 15:24:00,
2013-11-27 09:29:00,27.4,13.0,30.52,NW,316,2.0,10.0,54,0.00,,,0.00,VWS V14.01,2013-11-27 15:29:00,
2013-11-27 09:34:00,27.8,13.3,30.52,NNW,346,4.0,7.0,54,0.00,,,0.00,VWS V14.01,2013-11-27 15:34:00,
2013-11-27 09:39:00,28.1,12.8,30.52,NNE,30,7.0,10.0,52,0.00,,,0.00,VWS V14.01,2013-11-27 15:39:00,
2013-11-27 09:44:00,28.4,12.6,30.52,North,5,7.0,10.0,51,0.00,,,0.00,VWS V14.01,2013-11-27 15:44:00,
2013-11-27 09:49:00,28.5,11.3,30.52,NE,42,1.0,10.0,48,0.00,,,0.00,VWS V14.01,2013-11-27 15:49:00,
2013-11-27 09:54:00,29.0,12.2,30.52,NNE,21,7.0,10.0,49,0.00,,,0.00,VWS V14.01,2013-11-27 15:54:00,
2013-11-27 09:59:00,28.9,11.7,30.52,ENE,59,5.0,10.0,48,0.00,,,0.00,VWS V14.01,2013-11-27 15:59:00,
2013-11-27 10:04:00,29.0,12.2,30.53,North,350,2.0,8.0,49,0.00,,,0.00,VWS V14.01,2013-11-27 16:04:00,
2013-11-27 10:09:00,29.1,11.9,30.53,NNW,340,8.0,10.0,48,0.00,,,0.00,VWS V14.01,2013-11-27 16:09:00,
2013-11-27 10:14:00,29.6,11.4,30.52,NE,37,2.0,10.0,46,0.00,,,0.00,VWS V14.01,2013-11-27 16:14:00,
2013-11-27 10:19:00,29.9,12.1,30.53,North,355,2.0,10.0,47,0.00,,,0.00,VWS V14.01,2013-11-27 16:19:00,
2013-11-27 10:24:00,30.1,12.3,30.52,North,360,5.0,10.0,47,0.00,,,0.00,VWS V14.01,2013-11-27 16:24:00,
2013-11-27 10:29:00,30.5,11.7,30.52,East,94,1.0,10.0,45,0.00,,,0.00,VWS V14.01,2013-11-27 16:29:00,
2013-11-27 10:34:00,30.5,12.2,30.52,North,5,1.0,8.0,46,0.00,,,0.00,VWS V14.01,2013-11-27 16:34:00,
2013-11-27 10:39:00,30.5,11.7,30.52,NE,53,2.0,8.0,45,0.00,,,0.00,VWS V14.01,2013-11-27 16:39:00,
2013-11-27 10:44:00,30.5,11.7,30.52,North,355,5.0,8.0,45,0.00,,,0.00,VWS V14.01,2013-11-27 16:44:00,
2013-11-27 10:49:00,30.9,12.6,30.52,North,355,4.0,8.0,46,0.00,,,0.00,VWS V14.01,2013-11-27 16:49:00,
2013-11-27 10:55:00,31.1,11.8,30.51,NW,319,1.0,8.0,44,0.00,,,0.00,VWS V14.01,2013-11-27 16:55:00,
2013-11-27 11:00:00,31.1,11.8,30.51,NNE,23,0.0,8.0,44,0.00,,,0.00,VWS V14.01,2013-11-27 17:00:00,
2013-11-27 11:05:00,31.3,11.9,30.51,SSW,194,2.0,5.0,44,0.00,,,0.00,VWS V14.01,2013-11-27 17:05:00,
2013-11-27 11:10:00,31.8,12.4,30.51,WNW,288,5.0,10.0,44,0.00,,,0.00,VWS V14.01,2013-11-27 17:10:00,
2013-11-27 11:15:00,31.5,11.6,30.50,NE,38,1.0,10.0,43,0.00,,,0.00,VWS V14.01,2013-11-27 17:15:00,
2013-11-27 11:20:00,31.7,12.3,30.50,NE,35,4.0,10.0,44,0.00,,,0.00,VWS V14.01,2013-11-27 17:20:00,
2013-11-27 11:25:00,32.0,12.6,30.50,NE,53,0.0,10.0,44,0.00,,,0.00,VWS V14.01,2013-11-27 17:25:00,
2013-11-27 11:30:00,32.1,12.7,30.50,North,5,1.0,10.0,44,0.00,,,0.00,VWS V14.01,2013-11-27 17:30:00,
2013-11-27 11:35:00,32.0,12.6,30.49,North,5,0.0,4.0,44,0.00,,,0.00,VWS V14.01,2013-11-27 17:35:00,
2013-11-27 11:40:00,32.2,12.2,30.49,NE,44,5.0,7.0,43,0.00,,,0.00,VWS V14.01,2013-11-27 17:40:00,
2013-11-27 11:45:00,32.4,11.9,30.48,NNW,331,4.0,9.0,42,0.00,,,0.00,VWS V14.01,2013-11-27 17:45:00,
2013-11-27 11:50:00,32.3,12.8,30.48,North,350,5.0,9.0,44,0.00,,,0.00,VWS V14.01,2013-11-27 17:50:00,
2013-11-27 11:55:00,32.9,12.9,30.48,NNW,333,0.0,9.0,43,0.00,,,0.00,VWS V14.01,2013-11-27 17:55:00,
2013-11-27 12:00:00,33.7,13.1,30.48,NW,324,5.0,9.0,42,0.00,,,0.00,VWS V14.01,2013-11-27 18:00:00,
2013-11-27 12:05:00,33.6,13.0,30.47,NW,307,2.0,6.0,42,0.00,,,0.00,VWS V14.01,2013-11-27 18:05:00,
2013-11-27 12:10:00,33.5,12.9,30.47,WNW,283,0.0,6.0,42,0.00,,,0.00,VWS V14.01,2013-11-27 18:10:00,
2013-11-27 12:15:00,33.7,12.5,30.46,North,5,4.0,6.0,41,0.00,,,0.00,VWS V14.01,2013-11-27 18:15:00,
2013-11-27 12:20:00,33.8,12.1,30.46,NNE,14,2.0,9.0,40,0.00,,,0.00,VWS V14.01,2013-11-27 18:20:00,
2013-11-27 12:25:00,33.9,12.7,30.46,NNE,15,0.0,9.0,41,0.00,,,0.00,VWS V14.01,2013-11-27 18:25:00,
2013-11-27 12:30:00,34.0,12.8,30.46,North,360,1.0,9.0,41,0.00,,,0.00,VWS V14.01,2013-11-27 18:30:00,
2013-11-27 12:35:00,34.1,12.9,30.46,NNE,15,6.0,6.0,41,0.00,,,0.00,VWS V14.01,2013-11-27 18:35:00,
2013-11-27 12:40:00,34.4,13.1,30.46,East,80,3.0,6.0,41,0.00,,,0.00,VWS V14.01,2013-11-27 18:40:00,
2013-11-27 12:45:00,34.8,12.9,30.46,NW,319,1.0,6.0,40,0.00,,,0.00,VWS V14.01,2013-11-27 18:45:00,
2013-11-27 12:50:00,35.3,13.4,30.46,ENE,61,1.0,8.0,40,0.00,,,0.00,VWS V14.01,2013-11-27 18:50:00,
2013-11-27 12:55:00,35.5,13.6,30.45,NNW,327,0.0,8.0,40,0.00,,,0.00,VWS V14.01,2013-11-27 18:55:00,
2013-11-27 12:56:00,35.4,13.5,30.45,NE,41,1.0,8.0,40,0.00,,,0.00,VWS V14.01,2013-11-27 18:56:00,
2013-11-27 13:01:00,35.4,13.5,30.45,NW,317,2.0,8.0,40,0.00,,,0.00,VWS V14.01,2013-11-27 19:01:00,
2013-11-27 13:06:00,35.5,13.6,30.45,NW,318,5.0,7.0,40,0.00,,,0.00,VWS V14.01,2013-11-27 19:06:00,
2013-11-27 13:11:00,35.6,13.1,30.44,NE,35,1.0,9.0,39,0.00,,,0.00,VWS V14.01,2013-11-27 19:11:00,
2013-11-27 13:16:00,35.5,13.6,30.44,WNW,303,1.0,9.0,40,0.00,,,0.00,VWS V14.01,2013-11-27 19:16:00,
2013-11-27 13:21:00,35.8,13.9,30.43,North,350,4.0,9.0,40,0.00,,,0.00,VWS V14.01,2013-11-27 19:21:00,
2013-11-27 13:26:00,36.1,13.6,30.43,NNW,344,5.0,9.0,39,0.00,,,0.00,VWS V14.01,2013-11-27 19:26:00,
2013-11-27 13:31:00,36.2,13.6,30.43,North,9,4.0,9.0,39,0.00,,,0.00,VWS V14.01,2013-11-27 19:31:00,
2013-11-27 13:36:00,36.2,13.6,30.43,WNW,301,4.0,8.0,39,0.00,,,0.00,VWS V14.01,2013-11-27 19:36:00,
2013-11-27 13:41:00,36.2,13.6,30.43,NNW,330,1.0,8.0,39,0.00,,,0.00,VWS V14.01,2013-11-27 19:41:00,
2013-11-27 13:46:00,36.4,13.8,30.42,NNW,331,0.0,8.0,39,0.00,,,0.00,VWS V14.01,2013-11-27 19:46:00,
2013-11-27 13:51:00,36.7,13.5,30.42,NNE,26,5.0,8.0,38,0.00,,,0.00,VWS V14.01,2013-11-27 19:51:00,
2013-11-27 13:56:00,36.9,13.7,30.42,North,9,2.0,8.0,38,0.00,,,0.00,VWS V14.01,2013-11-27 19:56:00,
2013-11-27 14:01:00,37.0,13.8,30.42,NNW,345,1.0,8.0,38,0.00,,,0.00,VWS V14.01,2013-11-27 20:01:00,
2013-11-27 14:06:00,37.0,13.8,30.42,NNE,19,4.0,6.0,38,0.00,,,0.00,VWS V14.01,2013-11-27 20:06:00,
2013-11-27 14:11:00,37.1,14.4,30.41,NE,49,0.0,6.0,39,0.00,,,0.00,VWS V14.01,2013-11-27 20:11:00,
2013-11-27 14:16:00,37.4,13.5,30.41,NE,49,2.0,6.0,37,0.00,,,0.00,VWS V14.01,2013-11-27 20:16:00,
2013-11-27 14:21:00,37.1,13.2,30.41,NW,315,1.0,6.0,37,0.00,,,0.00,VWS V14.01,2013-11-27 20:21:00,
2013-11-27 14:26:00,37.5,13.6,30.41,SW,229,1.0,6.0,37,0.00,,,0.00,VWS V14.01,2013-11-27 20:26:00,
2013-11-27 14:31:00,38.1,14.1,30.41,North,360,2.0,6.0,37,0.00,,,0.00,VWS V14.01,2013-11-27 20:31:00,
2013-11-27 14:36:00,37.9,13.4,30.41,WNW,302,1.0,3.0,36,0.00,,,0.00,VWS V14.01,2013-11-27 20:36:00,
2013-11-27 14:41:00,38.4,14.4,30.41,WNW,302,0.0,3.0,37,0.00,,,0.00,VWS V14.01,2013-11-27 20:41:00,
2013-11-27 14:46:00,38.5,13.2,30.41,West,268,0.0,4.0,35,0.00,,,0.00,VWS V14.01,2013-11-27 20:46:00,
2013-11-27 14:51:00,38.3,14.3,30.41,NW,304,4.0,6.0,37,0.00,,,0.00,VWS V14.01,2013-11-27 20:51:00,
2013-11-27 14:56:00,38.0,14.1,30.40,North,350,0.0,6.0,37,0.00,,,0.00,VWS V14.01,2013-11-27 20:56:00,
2013-11-27 15:01:00,38.6,14.6,30.40,North,350,0.0,6.0,37,0.00,,,0.00,VWS V14.01,2013-11-27 21:01:00,
2013-11-27 15:06:00,38.9,14.2,30.40,North,350,0.0,2.0,36,0.00,,,0.00,VWS V14.01,2013-11-27 21:06:00,
2013-11-27 15:11:00,38.6,14.0,30.40,NW,325,0.0,5.0,36,0.00,,,0.00,VWS V14.01,2013-11-27 21:11:00,
2013-11-27 15:16:00,38.3,13.7,30.39,NW,326,0.0,5.0,36,0.00,,,0.00,VWS V14.01,2013-11-27 21:16:00,
2013-11-27 15:21:00,38.0,14.1,30.39,NW,326,0.0,5.0,37,0.00,,,0.00,VWS V14.01,2013-11-27 21:21:00,
2013-11-27 15:26:00,37.6,13.7,30.39,NW,326,0.0,5.0,37,0.00,,,0.00,VWS V14.01,2013-11-27 21:26:00,
2013-11-27 15:31:00,37.2,13.3,30.39,NW,326,0.0,5.0,37,0.00,,,0.00,VWS V14.01,2013-11-27 21:31:00,
2013-11-27 15:36:00,37.0,13.8,30.39,NW,326,0.0,0.0,38,0.00,,,0.00,VWS V14.01,2013-11-27 21:36:00,
2013-11-27 15:41:00,36.9,13.7,30.38,NW,326,0.0,0.0,38,0.00,,,0.00,VWS V14.01,2013-11-27 21:41:00,
2013-11-27 15:46:00,36.7,14.1,30.39,NW,326,0.0,1.0,39,0.00,,,0.00,VWS V14.01,2013-11-27 21:46:00,
2013-11-27 15:51:00,36.5,13.9,30.38,NW,326,0.0,1.0,39,0.00,,,0.00,VWS V14.01,2013-11-27 21:51:00,
2013-11-27 15:56:00,36.5,13.3,30.38,NW,326,0.0,1.0,38,0.00,,,0.00,VWS V14.01,2013-11-27 21:56:00,
2013-11-27 16:01:00,36.3,13.7,30.38,NW,326,0.0,1.0,39,0.00,,,0.00,VWS V14.01,2013-11-27 22:01:00,
2013-11-27 16:06:00,36.1,14.1,30.38,NW,326,0.0,0.0,40,0.00,,,0.00,VWS V14.01,2013-11-27 22:06:00,
2013-11-27 16:11:00,36.0,14.0,30.38,NW,326,0.0,0.0,40,0.00,,,0.00,VWS V14.01,2013-11-27 22:11:00,
2013-11-27 16:16:00,35.9,13.9,30.38,NW,326,0.0,0.0,40,0.00,,,0.00,VWS V14.01,2013-11-27 22:16:00,
2013-11-27 16:21:00,35.8,13.9,30.37,NW,326,0.0,0.0,40,0.00,,,0.00,VWS V14.01,2013-11-27 22:21:00,
2013-11-27 16:26:00,35.6,14.2,30.37,NW,326,0.0,1.0,41,0.00,,,0.00,VWS V14.01,2013-11-27 22:26:00,
2013-11-27 16:31:00,35.5,14.1,30.37,NW,326,0.0,1.0,41,0.00,,,0.00,VWS V14.01,2013-11-27 22:31:00,
2013-11-27 16:36:00,35.3,14.0,30.37,NW,326,0.0,0.0,41,0.00,,,0.00,VWS V14.01,2013-11-27 22:36:00,
2013-11-27 16:41:00,35.2,15.0,30.37,NW,326,0.0,0.0,43,0.00,,,0.00,VWS V14.01,2013-11-27 22:41:00,
2013-11-27 16:46:00,35.0,14.2,30.37,NW,326,0.0,0.0,42,0.00,,,0.00,VWS V14.01,2013-11-27 22:46:00,
2013-11-27 16:51:00,34.9,14.1,30.37,NW,326,0.0,0.0,42,0.00,,,0.00,VWS V14.01,2013-11-27 22:51:00,
2013-11-27 16:56:00,34.7,14.0,30.37,NW,326,0.0,0.0,42,0.00,,,0.00,VWS V14.01,2013-11-27 22:56:00,
2013-11-27 17:01:00,34.4,14.8,30.37,NW,326,0.0,0.0,44,0.00,,,0.00,VWS V14.01,2013-11-27 23:01:00,
2013-11-27 17:06:00,34.4,15.3,30.36,NW,326,0.0,0.0,45,0.00,,,0.00,VWS V14.01,2013-11-27 23:06:00,
2013-11-27 17:11:00,34.0,15.4,30.36,NW,326,0.0,0.0,46,0.00,,,0.00,VWS V14.01,2013-11-27 23:11:00,
2013-11-27 17:16:00,33.5,15.4,30.36,NW,326,0.0,0.0,47,0.00,,,0.00,VWS V14.01,2013-11-27 23:16:00,
2013-11-27 17:21:00,33.2,15.6,30.36,NW,326,0.0,0.0,48,0.00,,,0.00,VWS V14.01,2013-11-27 23:21:00,
2013-11-27 17:26:00,32.7,14.7,30.36,NW,326,0.0,0.0,47,0.00,,,0.00,VWS V14.01,2013-11-27 23:26:00,
2013-11-27 17:31:00,32.3,14.8,30.37,NW,326,0.0,0.0,48,0.00,,,0.00,VWS V14.01,2013-11-27 23:31:00,
2013-11-27 17:36:00,31.9,14.4,30.36,NW,326,0.0,0.0,48,0.00,,,0.00,VWS V14.01,2013-11-27 23:36:00,
2013-11-27 17:41:00,31.6,15.1,30.37,NW,326,0.0,0.0,50,0.00,,,0.00,VWS V14.01,2013-11-27 23:41:00,
2013-11-27 17:46:00,31.3,14.8,30.36,NW,326,0.0,0.0,50,0.00,,,0.00,VWS V14.01,2013-11-27 23:46:00,
2013-11-27 17:51:00,31.0,15.0,30.36,NW,326,0.0,1.0,51,0.00,,,0.00,VWS V14.01,2013-11-27 23:51:00,
2013-11-27 17:56:00,30.8,15.3,30.36,NW,326,0.0,1.0,52,0.00,,,0.00,VWS V14.01,2013-11-27 23:56:00,
2013-11-27 18:01:00,30.5,15.0,30.37,NW,326,0.0,1.0,52,0.00,,,0.00,VWS V14.01,2013-11-28 00:01:00,
2013-11-27 18:06:00,30.2,15.1,30.37,NW,326,0.0,0.0,53,0.00,,,0.00,VWS V14.01,2013-11-28 00:06:00,
2013-11-27 18:11:00,29.9,15.3,30.37,NW,326,0.0,1.0,54,0.00,,,0.00,VWS V14.01,2013-11-28 00:11:00,
2013-11-27 18:16:00,29.7,15.1,30.36,NW,326,0.0,1.0,54,0.00,,,0.00,VWS V14.01,2013-11-28 00:16:00,
2013-11-27 18:21:00,29.5,14.9,30.37,NW,326,0.0,1.0,54,0.00,,,0.00,VWS V14.01,2013-11-28 00:21:00,
2013-11-27 18:26:00,29.3,15.1,30.37,NW,326,0.0,1.0,55,0.00,,,0.00,VWS V14.01,2013-11-28 00:26:00,
2013-11-27 18:31:00,29.2,15.1,30.37,NW,326,0.0,1.0,55,0.00,,,0.00,VWS V14.01,2013-11-28 00:31:00,
2013-11-27 18:36:00,29.0,14.9,30.37,NW,326,0.0,0.0,55,0.00,,,0.00,VWS V14.01,2013-11-28 00:36:00,
2013-11-27 18:41:00,28.9,15.2,30.37,NW,326,0.0,0.0,56,0.00,,,0.00,VWS V14.01,2013-11-28 00:41:00,
2013-11-27 18:46:00,28.8,14.7,30.37,NW,326,0.0,0.0,55,0.00,,,0.00,VWS V14.01,2013-11-28 00:46:00,
2013-11-27 18:51:00,28.6,14.5,30.37,NW,326,0.0,0.0,55,0.00,,,0.00,VWS V14.01,2013-11-28 00:51:00,
2013-11-27 18:56:00,28.4,14.3,30.37,NW,326,0.0,0.0,55,0.00,,,0.00,VWS V14.01,2013-11-28 00:56:00,
2013-11-27 19:01:00,28.3,14.6,30.37,NW,326,0.0,0.0,56,0.00,,,0.00,VWS V14.01,2013-11-28 01:01:00,
2013-11-27 19:06:00,28.1,14.4,30.37,NW,326,0.0,0.0,56,0.00,,,0.00,VWS V14.01,2013-11-28 01:06:00,
2013-11-27 19:11:00,28.0,14.3,30.37,NW,326,0.0,0.0,56,0.00,,,0.00,VWS V14.01,2013-11-28 01:11:00,
2013-11-27 19:16:00,27.8,14.2,30.37,NW,326,0.0,0.0,56,0.00,,,0.00,VWS V14.01,2013-11-28 01:16:00,
2013-11-27 19:21:00,27.7,14.5,30.37,NW,326,0.0,0.0,57,0.00,,,0.00,VWS V14.01,2013-11-28 01:21:00,
2013-11-27 19:27:00,27.6,14.4,30.36,NW,326,0.0,0.0,57,0.00,,,0.00,VWS V14.01,2013-11-28 01:27:00,
2013-11-27 19:32:00,27.4,14.6,30.36,NW,326,0.0,0.0,58,0.00,,,0.00,VWS V14.01,2013-11-28 01:32:00,
2013-11-27 19:37:00,27.2,14.4,30.36,NW,326,0.0,0.0,58,0.00,,,0.00,VWS V14.01,2013-11-28 01:37:00,
2013-11-27 19:42:00,27.1,14.7,30.36,NW,326,0.0,0.0,59,0.00,,,0.00,VWS V14.01,2013-11-28 01:42:00,
2013-11-27 19:47:00,26.9,14.5,30.36,NW,326,0.0,0.0,59,0.00,,,0.00,VWS V14.01,2013-11-28 01:47:00,
2013-11-27 19:52:00,26.7,14.3,30.36,NW,326,0.0,0.0,59,0.00,,,0.00,VWS V14.01,2013-11-28 01:52:00,
2013-11-27 19:57:00,26.6,14.6,30.36,NW,326,0.0,0.0,60,0.00,,,0.00,VWS V14.01,2013-11-28 01:57:00,
2013-11-27 20:02:00,26.4,14.4,30.36,NW,326,0.0,0.0,60,0.00,,,0.00,VWS V14.01,2013-11-28 02:02:00,
2013-11-27 20:07:00,26.3,14.3,30.36,NW,326,0.0,0.0,60,0.00,,,0.00,VWS V14.01,2013-11-28 02:07:00,
2013-11-27 20:12:00,26.2,14.6,30.36,NW,326,0.0,0.0,61,0.00,,,0.00,VWS V14.01,2013-11-28 02:12:00,
2013-11-27 20:17:00,26.0,14.4,30.36,NW,326,0.0,0.0,61,0.00,,,0.00,VWS V14.01,2013-11-28 02:17:00,
2013-11-27 20:22:00,25.9,14.7,30.36,NW,326,0.0,0.0,62,0.00,,,0.00,VWS V14.01,2013-11-28 02:22:00,
2013-11-27 20:27:00,25.7,14.9,30.36,NW,326,0.0,0.0,63,0.00,,,0.00,VWS V14.01,2013-11-28 02:27:00,
2013-11-27 20:32:00,25.6,14.8,30.36,NW,326,0.0,0.0,63,0.00,,,0.00,VWS V14.01,2013-11-28 02:32:00,
2013-11-27 20:37:00,25.4,14.6,30.36,NW,326,0.0,0.0,63,0.00,,,0.00,VWS V14.01,2013-11-28 02:37:00,
2013-11-27 20:42:00,25.3,14.8,30.36,NW,326,0.0,0.0,64,0.00,,,0.00,VWS V14.01,2013-11-28 02:42:00,
2013-11-27 20:47:00,25.2,14.8,30.36,NW,326,0.0,0.0,64,0.00,,,0.00,VWS V14.01,2013-11-28 02:47:00,
2013-11-27 20:52:00,25.1,14.6,30.37,NW,326,0.0,0.0,64,0.00,,,0.00,VWS V14.01,2013-11-28 02:52:00,
2013-11-27 20:57:00,24.9,14.8,30.37,NW,326,0.0,0.0,65,0.00,,,0.00,VWS V14.01,2013-11-28 02:57:00,
2013-11-27 21:02:00,24.8,14.7,30.37,NW,326,0.0,0.0,65,0.00,,,0.00,VWS V14.01,2013-11-28 03:02:00,
2013-11-27 21:07:00,24.7,14.6,30.36,NW,326,0.0,0.0,65,0.00,,,0.00,VWS V14.01,2013-11-28 03:07:00,
2013-11-27 21:12:00,24.6,14.9,30.36,NW,326,0.0,0.0,66,0.00,,,0.00,VWS V14.01,2013-11-28 03:12:00,
2013-11-27 21:17:00,24.5,14.8,30.36,NW,326,0.0,0.0,66,0.00,,,0.00,VWS V14.01,2013-11-28 03:17:00,
2013-11-27 21:22:00,24.4,14.7,30.37,NW,326,0.0,0.0,66,0.00,,,0.00,VWS V14.01,2013-11-28 03:22:00,
2013-11-27 21:27:00,24.3,14.6,30.36,NW,326,0.0,0.0,66,0.00,,,0.00,VWS V14.01,2013-11-28 03:27:00,
2013-11-27 21:32:00,24.1,14.4,30.36,NW,326,0.0,0.0,66,0.00,,,0.00,VWS V14.01,2013-11-28 03:32:00,
2013-11-27 21:37:00,23.9,14.2,30.36,NW,326,0.0,0.0,66,0.00,,,0.00,VWS V14.01,2013-11-28 03:37:00,
2013-11-27 21:42:00,23.7,14.4,30.36,NW,326,0.0,0.0,67,0.00,,,0.00,VWS V14.01,2013-11-28 03:42:00,
2013-11-27 21:47:00,23.5,14.2,30.37,NW,326,2.0,2.0,67,0.00,,,0.00,VWS V14.01,2013-11-28 03:47:00,
2013-11-27 21:52:00,23.4,14.4,30.37,NW,326,0.0,2.0,68,0.00,,,0.00,VWS V14.01,2013-11-28 03:52:00,
2013-11-27 21:57:00,23.3,14.3,30.37,NW,326,0.0,2.0,68,0.00,,,0.00,VWS V14.01,2013-11-28 03:57:00,
2013-11-27 22:02:00,23.3,14.6,30.37,NW,326,0.0,2.0,69,0.00,,,0.00,VWS V14.01,2013-11-28 04:02:00,
2013-11-27 22:07:00,23.4,14.8,30.37,NW,326,0.0,0.0,69,0.00,,,0.00,VWS V14.01,2013-11-28 04:07:00,
2013-11-27 22:12:00,23.5,15.2,30.37,NW,326,0.0,0.0,70,0.00,,,0.00,VWS V14.01,2013-11-28 04:12:00,
2013-11-27 22:17:00,23.5,15.2,30.37,NW,326,0.0,0.0,70,0.00,,,0.00,VWS V14.01,2013-11-28 04:17:00,
2013-11-27 22:22:00,23.5,15.2,30.37,NW,326,0.0,0.0,70,0.00,,,0.00,VWS V14.01,2013-11-28 04:22:00,
2013-11-27 22:27:00,23.5,15.2,30.37,NW,326,0.0,0.0,70,0.00,,,0.00,VWS V14.01,2013-11-28 04:27:00,
2013-11-27 22:32:00,23.4,15.1,30.37,NW,326,0.0,0.0,70,0.00,,,0.00,VWS V14.01,2013-11-28 04:32:00,
2013-11-27 22:37:00,23.4,15.1,30.37,NW,326,0.0,0.0,70,0.00,,,0.00,VWS V14.01,2013-11-28 04:37:00,
2013-11-27 22:42:00,23.4,15.1,30.36,NW,326,0.0,0.0,70,0.00,,,0.00,VWS V14.01,2013-11-28 04:42:00,
2013-11-27 22:47:00,23.4,15.1,30.37,NW,326,0.0,0.0,70,0.00,,,0.00,VWS V14.01,2013-11-28 04:47:00,
2013-11-27 22:52:00,23.4,15.4,30.37,NW,326,0.0,0.0,71,0.00,,,0.00,VWS V14.01,2013-11-28 04:52:00,
2013-11-27 22:57:00,23.4,15.4,30.37,NW,326,0.0,0.0,71,0.00,,,0.00,VWS V14.01,2013-11-28 04:57:00,
2013-11-27 23:01:00,23.4,15.4,30.37,NW,326,0.0,0.0,71,0.00,,,0.00,VWS V14.01,2013-11-28 05:01:00,
2013-11-27 23:03:00,23.4,15.4,30.37,NW,326,0.0,0.0,71,0.00,,,0.00,VWS V14.01,2013-11-28 05:03:00,
2013-11-27 23:08:00,23.4,15.7,30.37,NW,326,0.0,0.0,72,0.00,,,0.00,VWS V14.01,2013-11-28 05:08:00,
2013-11-27 23:13:00,23.4,15.7,30.37,NW,326,0.0,0.0,72,0.00,,,0.00,VWS V14.01,2013-11-28 05:13:00,
2013-11-27 23:18:00,23.4,15.7,30.37,NW,326,0.0,0.0,72,0.00,,,0.00,VWS V14.01,2013-11-28 05:18:00,
2013-11-27 23:23:00,23.4,15.7,30.37,NW,326,0.0,0.0,72,0.00,,,0.00,VWS V14.01,2013-11-28 05:23:00,
2013-11-27 23:28:00,23.3,15.9,30.37,NW,326,0.0,0.0,73,0.00,,,0.00,VWS V14.01,2013-11-28 05:28:00,
2013-11-27 23:33:00,23.2,15.8,30.37,NW,326,0.0,0.0,73,0.00,,,0.00,VWS V14.01,2013-11-28 05:33:00,
2013-11-27 23:38:00,23.0,15.6,30.37,NW,326,0.0,0.0,73,0.00,,,0.00,VWS V14.01,2013-11-28 05:38:00,
2013-11-27 23:43:00,22.8,15.5,30.37,NW,326,0.0,0.0,73,0.00,,,0.00,VWS V14.01,2013-11-28 05:43:00,
2013-11-27 23:48:00,22.6,15.3,30.37,NW,326,0.0,0.0,73,0.00,,,0.00,VWS V14.01,2013-11-28 05:48:00,
2013-11-27 23:53:00,22.5,15.2,30.36,NW,326,0.0,0.0,73,0.00,,,0.00,VWS V14.01,2013-11-28 05:53:00,
2013-11-27 23:58:00,22.3,15.0,30.36,NW,326,0.0,0.0,73,0.00,,,0.00,VWS V14.01,2013-11-28 05:58:00,